Regional Weather Roundup
Issued by NWS

Home | Current Version | Previous Version | Text Only | Print | Product List | Glossary Off
Versions: 1 2 3 4 5 6 7 8 9 10 11 12 13 14 15 16 17 18 19 20 21 22 23 24 25 26 27 28 29 30 31 32 33 34 35 36 37 38 39 40 41 42 43 44 45 46 47 48 49 50

000
ASUS45 KBOU 211807
RWRCO

WEATHER ROUNDUP FOR COLORADO
NATIONAL WEATHER SERVICE DENVER/BOULDER CO
1200 PM MDT MON JUL 21 2014

NOTE: "FAIR" INDICATES FEW OR NO CLOUDS BELOW 12000 FEET WITH NO
SIGNIFICANT WEATHER AND/OR OBSTRUCTIONS TO VISIBILITY.

COZ001>005-013-030-031-211900-
...NORTHWEST COLORADO...

CITY           SKY/WX    TMP DP  RH WIND       PRES   REMARKS
CRAIG          MOSUNNY   87  42  20 NW12      30.24F
HAYDEN         SUNNY     82  39  21 W6        30.28S
MEEKER         MOSUNNY   87  34  15 SW14      30.25F
MOUNT WERNER   NOT AVBL
STEAMBOAT SPGS SUNNY     80  41  25 CALM      30.31S
WALDEN         MOSUNNY   77  36  22 SW20      30.40R
$$

COZ006>008-011-211900-
...WEST CENTRAL VALLEYS...

CITY           SKY/WX    TMP DP  RH WIND       PRES   REMARKS
GRAND JUNCTION MOSUNNY   87  40  19 SE6       30.18F
MONTROSE       MOSUNNY   88  38  17 N8        30.26F
EAGLE          MOSUNNY   75  46  35 S3        30.34F
RIFLE          MOSUNNY   83  45  26 N5        30.23F
DELTA          MOSUNNY   90  38  15 CALM      30.22F
NUCLA          NOT AVBL
$$

COZ017>023-064>068-211900-
...SOUTHWEST COLORADO...

CITY           SKY/WX    TMP DP  RH WIND       PRES   REMARKS
DURANGO        PTSUNNY   81  38  21 CALM      30.34F
CORTEZ         SUNNY     85  32  15 W9        30.29F
PAGOSA SPRINGS PTSUNNY   78  37  22 SW3       30.43S
TELLURIDE      NOT AVBL
WOLF CREEK PAS NOT AVBL
$$

COZ009-010-012-014-032>034-037-058>063-211900-
...CENTRAL COLORADO...

CITY           SKY/WX    TMP DP  RH WIND       PRES   REMARKS
ASPEN          PTSUNNY   77  45  32 VRB7      30.39F
BUENA VISTA    PTSUNNY   73  38  28 CALM      30.42F
COPPER MTN     PTSUNNY   61  27  27 W21G32    30.74F
BERTHOUD PASS  FAIR      54  39  58 NW21G28   30.78S
COTTONWOOD PAS PTSUNNY   70  32  24 CALM      30.58S
GUNNISON       PTSUNNY   72  45  37 CALM      30.45F
KREMMLING      MOSUNNY   73  45  35 W3        30.38F
LEADVILLE      PTSUNNY   68  36  30 VRB5      30.56S
MONARCH PASS   PTSUNNY   59  30  33 W17G28    30.85S
SALIDA         PTSUNNY   76  42  29 CALM      30.45F
SUNLIGHT       PTSUNNY   68  39  34 CALM      30.66S
WILKERSON PASS NOT AVBL
$$

COZ069>075-211900-
...SAN LUIS VALLEY/SANGRE DE CRISTO MOUNTAINS...

CITY           SKY/WX    TMP DP  RH WIND       PRES   REMARKS
ALAMOSA        MOSUNNY   73  52  47 VRB3      30.40F
LA VETA PASS   CLOUDY    64  43  45 SW7       30.61R
SAGUACHE       MOSUNNY   73  45  35 S5        30.43S
$$

COZ035-036-038>040-211900-
...NORTHERN COLORADO FRONT RANGE...

CITY           SKY/WX    TMP DP  RH WIND       PRES   REMARKS
DENVER INTL AP PTSUNNY   93  33  12 W13G18    30.16S
DMNS CITY PARK   N/A     89  43  20 SE2       30.15S
AURORA         PTSUNNY   89  41  18 VRB1      30.20S
FRONT RANGE AP NOT AVBL
ERIE MUNI ARPT CLOUDY    91  35  14 NW3       30.13F
BOULDER MUN AP CLOUDY    90  41  18 NE6       30.14F
CENTENNIAL     CLOUDY    88  34  14 CALM      30.21S
BROOMFIELD     PTSUNNY   91  37  15 SE8       30.19S
FORT COLLINS   PTSUNNY   90  46  22 S12       30.11S
LONGMONT       PTSUNNY   93  39  14 S3        30.14S
$$

COZ041-046-047-076>085-087-088-211900-
...PIKES PEAK/PALMER DIVIDE AND SOUTHERN FOOTHILLS...

CITY           SKY/WX    TMP DP  RH WIND       PRES   REMARKS
COLO. SPRINGS  CLOUDY    84  54  35 S7        30.26R
A. F. ACADEMY  PTSUNNY   85  37  18 W7        30.27S
ELLICOTT       CLOUDY    85  49  28 W6        30.24R
FALCON         CLOUDY    84  37  18 W7        30.32S
FORT CARSON    CLOUDY    82  50  32 S6        30.23S
LIMON          PTSUNNY   91  36  14 N9        30.17R
MONUMENT HILL  CLOUDY    82  32  16 NW6       30.31S
TRINIDAD       PTSUNNY   88  46  23 VRB6      30.22S
$$

COZ042>045-048>051-090-091-211900-
...NORTHEAST COLORADO...

CITY           SKY/WX    TMP DP  RH WIND       PRES   REMARKS
GREELEY ARPT   PTSUNNY   90  54  29 W5        30.12S
AKRON          PTSUNNY   92  42  17 CALM      30.11S
BURLINGTON     CLOUDY    89  54  30 N9        30.07S
WRAY             N/A     96  45  17 N5        30.03S
STERLING       PTSUNNY   91  66  43 S5        30.04S
HOLYOKE        MOSUNNY   99  54  22 CALM      30.02S
FORT MORGAN    PTSUNNY   89  49  25 S3        30.11S
$$

COZ086-089-092>099-211900-
...SOUTHEAST COLORADO...

CITY           SKY/WX    TMP DP  RH WIND       PRES   REMARKS
PUEBLO         CLOUDY    86  49  27 NW3       30.13S
LA JUNTA       PTSUNNY   88  55  32 W7        30.08S
LAMAR          SUNNY     96  55  25 W10       30.02S
SPRINGFIELD      N/A     94  51  23 VRB5      30.09S
$$



USA.gov is the U.S. government's official web portal to all federal, state and local government web resources and services.